Location: ??????????
(42.1626°N, 44.1160°E)
Time: 14:49:20
(UTC+00:00)

Cosmos 1980 Rocket - Pass Details

Date: 03 March 2021
Orbit: 828 x 851 km, 71.0° (Epoch: 14 April)

Event Time Altitude Azimuth Distance (km) Brightness Sun altitude
Rises 15:27:05 0° 234° (SW) 3,386 6.4 -6.6°
Reaches altitude 10° 15:29:49 10° 245° (WSW) 2,459 5.9 -7.1°
Maximum altitude 15:34:42 29° 305° (NW) 1,499 4.2 -8.0°
Drops below altitude 10° 15:39:38 10° 5° (N) 2,482 4.6 -8.9°
Sets 15:42:26 0° 17° (NNE) 3,423 5.2 -9.4°
